GW3828 Weather Reports


time (UTC)temp
F
wind
direction
speed
knots
gust
knots
rain 1hr
in
rain 24hr
in
rain mn
in
humidity
%
barometer
mb
20260504220941 70 15 10.4 13.9 0.00 0.00 0.00 34 1003.8
20260504220437 70 44 7.8 9.6 0.00 0.00 0.00 34 1003.9
20260504215934 70 98 7.0 11.3 0.00 0.00 0.00 35 1004.0
20260504215431 71 357 4.3 7.8 0.00 0.00 0.00 35 1003.9
20260504214927 71 48 6.1 7.8 0.00 0.00 0.00 34 1003.8
20260504214424 71 355 5.2 9.6 0.00 0.00 0.00 35 1003.8
20260504213920 72 53 6.1 7.8 0.00 0.00 0.00 35 1003.9
20260504213416 71 56 3.5 7.0 0.00 0.00 0.00 35 1003.8
20260504212914 71 345 9.6 12.2 0.00 0.00 0.00 35 1003.7
20260504212409 72 359 6.1 7.8 0.00 0.00 0.00 35 1003.7
20260504211908 73 36 6.1 7.0 0.00 0.00 0.00 34 1003.9
20260504211404 73 78 8.7 11.3 0.00 0.00 0.00 35 1003.5
20260504210901 74 27 8.7 9.6 0.00 0.00 0.00 34 1003.6
20260504210358 74 61 6.1 7.8 0.00 0.00 0.00 34 1003.7
20260504205855 74 65 3.5 4.3 0.00 0.00 0.00 35 1003.5
20260504205353 75 32 7.8 11.3 0.00 0.00 0.00 34 1003.6
20260504204851 74 325 4.3 6.1 0.00 0.00 0.00 34 1003.6
20260504204349 75 27 6.1 8.7 0.00 0.00 0.00 35 1003.3
20260504203848 75 60 4.3 5.2 0.00 0.00 0.00 34 1003.6
20260504203344 75 302 6.1 7.8 0.00 0.00 0.00 33 1003.7
20260504202840 75 21 8.7 11.3 0.00 0.00 0.00 34 1003.5
20260504202337 74 313 4.3 7.0 0.00 0.00 0.00 36 1003.7
20260504201834 74 3 8.7 13.0 0.00 0.00 0.00 35 1003.8
20260504201331 74 72 3.5 6.1 0.00 0.00 0.00 35 1003.8
20260504200829 74 18 6.1 7.8 0.00 0.00 0.00 34 1003.8
20260504200325 75 30 12.2 14.8 0.00 0.00 0.00 33 1003.7
20260504195821 74 93 3.5 6.1 0.00 0.00 0.00 34 1003.8
20260504195317 74 19 9.6 14.8 0.00 0.00 0.00 34 1004.2
20260504194814 75 81 3.5 4.3 0.00 0.00 0.00 34 1003.7
20260504194310 74 358 5.2 7.8 0.00 0.00 0.00 35 1003.6
20260504193806 74 28 2.6 2.6 0.00 0.00 0.00 35 1003.7
20260504193304 75 70 6.1 7.8 0.00 0.00 0.00 34 1003.5
20260504192803 76 15 4.3 6.1 0.00 0.00 0.00 33 1003.5
20260504192300 76 23 8.7 11.3 0.00 0.00 0.00 31 1003.1
20260504191759 76 69 4.3 7.0 0.00 0.00 0.00 33 1003.2
20260504191255 77 42 8.7 14.8 0.00 0.00 0.00 32 1003.2
20260504190751 77 13 3.5 4.3 0.00 0.00 0.00 31 1003.0
20260504190247 77 351 7.0 8.7 0.00 0.00 0.00 31 1003.0
20260504185744 78 322 6.1 8.7 0.00 0.00 0.00 32 1003.2
20260504185241 78 19 6.1 9.6 0.00 0.00 0.00 29 1003.3
20260504184737 79 227 6.1 7.8 0.00 0.00 0.00 24 1003.3
20260504184233 79 351 5.2 6.1 0.00 0.00 0.00 23 1003.0
20260504183729 80 10 2.6 2.6 0.00 0.00 0.00 24 1003.0
20260504183226 80 336 6.1 7.8 0.00 0.00 0.00 23 1003.0
20260504182724 80 352 4.3 7.0 0.00 0.00 0.00 23 1002.9
20260504182221 80 15 4.3 5.2 0.00 0.00 0.00 23 1003.3
20260504181719 79 17 4.3 5.2 0.00 0.00 0.00 23 1003.0
20260504181216 79 275 2.6 4.3 0.00 0.00 0.00 25 1003.0
20260504180715 80 302 2.6 6.1 0.00 0.00 0.00 24 1003.2
20260504180213 79 11 2.6 5.2 0.00 0.00 0.00 22 1003.1
20260504175710 79 11 4.3 6.1 0.00 0.00 0.00 22 1003.0
20260504175207 78 71 7.0 8.7 0.00 0.00 0.00 22 1002.9
20260504174705 79 46 2.6 4.3 0.00 0.00 0.00 23 1003.3
20260504174203 79 228 4.3 7.0 0.00 0.00 0.00 24 1003.2
20260504173659 79 73 1.7 2.6 0.00 0.00 0.00 24 1003.3
20260504173156 78 27 4.3 6.1 0.00 0.00 0.00 22 1003.6
20260504172652 78 321 2.6 5.2 0.00 0.00 0.00 23 1003.3
20260504172149 78 0 5.2 5.2 0.00 0.00 0.00 20 1003.7
20260504171645 78 218 2.6 2.6 0.00 0.00 0.00 24 1003.5
20260504171143 77 67 4.3 6.1 0.00 0.00 0.00 24 1003.8
20260504170639 78 348 5.2 7.8 0.00 0.00 0.00 22 1003.7
20260504170137 77 54 1.7 1.7 0.00 0.00 0.00 23 1003.8
20260504151022 71 324 4.3 6.1 0.00 0.00 0.00 34 1003.7
20260504150519 71 223 3.5 4.3 0.00 0.00 0.00 36 1003.9
20260504140950 65 171 1.7 2.6 0.00 0.00 0.00 43 1004.6
20260504140447 64 87 0.9 0.9 0.00 0.00 0.00 46 1004.2
20260504130411 52 0 2.6 4.3 0.00 0.00 0.00 58 1004.4
20260504110259 45 16 0.9 0.9 0.00 0.00 0.00 68 1003.6
20260504100217 50 214 0.9 0.9 0.00 0.00 0.00 61 1003.8
20260504090140 51 186 0.9 0.9 0.00 0.00 0.00 58 1003.7
20260504081610 51 136 1.7 2.6 0.00 0.00 0.00 57 1003.8
20260504081106 52 150 0.9 0.9 0.00 0.00 0.00 56 1004.1
20260504080603 52 158 0.9 1.7 0.00 0.00 0.00 55 1003.9
20260504050410 55 138 0.9 0.9 0.00 0.00 0.00 52 1006.7
20260504045907 55 145 0.9 0.9 0.00 0.00 0.00 52 1007.0
20260504045402 55 175 0.0 0.0 0.00 0.00 0.00 52 1007.0
20260504044859 55 141 0.0 0.9 0.00 0.00 0.00 52 1007.0
20260504044356 55 144 0.0 0.0 0.00 0.00 0.00 52 1007.3
20260504043854 55 140 0.0 0.0 0.00 0.00 0.00 52 1007.1
20260504043350 55 139 0.0 0.9 0.00 0.00 0.00 51 1007.3
20260504042848 55 148 0.9 0.9 0.00 0.00 0.00 52 1007.2
20260504042344 55 154 0.0 0.0 0.00 0.00 0.00 51 1007.3
20260504041840 56 108 0.0 0.0 0.00 0.00 0.00 51 1007.6
20260504041337 56 129 0.9 0.9 0.00 0.00 0.00 51 1007.3
20260504040833 56 171 0.9 0.9 0.00 0.00 0.00 51 1007.4
20260504040331 56 140 0.9 0.9 0.00 0.00 0.00 51 1007.2
20260504035826 56 175 0.9 0.9 0.00 0.00 0.00 50 1007.2
20260504035324 57 164 0.9 0.9 0.00 0.00 0.00 50 1006.9
20260504034821 57 122 0.9 1.7 0.00 0.00 0.00 48 1006.9
20260504034319 57 180 0.9 1.7 0.00 0.00 0.00 48 1007.2
20260504033815 57 157 0.9 1.7 0.00 0.00 0.00 48 1007.5
20260504033314 58 196 0.9 0.9 0.00 0.00 0.00 47 1007.4
20260504032809 58 153 0.0 0.9 0.00 0.00 0.00 47 1007.3
20260504032307 58 146 0.9 0.9 0.00 0.00 0.00 47 1007.0
20260504031804 58 133 0.9 0.9 0.00 0.00 0.00 47 1007.1
20260504031301 58 121 0.9 0.9 0.00 0.00 0.00 48 1007.5
20260504030757 58 104 0.0 0.0 0.00 0.00 0.00 48 1007.6
20260504030254 59 103 0.0 0.0 0.00 0.00 0.00 47 1007.4
20260504025750 59 78 0.9 0.9 0.00 0.00 0.00 47 1007.6
20260504025248 59 90 0.0 0.9 0.00 0.00 0.00 46 1007.6
20260504024744 60 107 0.9 1.7 0.00 0.00 0.00 45 1007.6
20260504024241 60 76 0.9 0.9 0.00 0.00 0.00 44 1007.5
20260504023738 60 78 0.0 0.9 0.00 0.00 0.00 44 1007.3
20260504023234 60 88 0.9 0.9 0.00 0.00 0.00 43 1007.4
20260504022730 61 92 0.0 0.0 0.00 0.00 0.00 43 1007.5
20260504022226 62 69 0.9 1.7 0.00 0.00 0.00 42 1007.4
20260504021724 62 85 0.0 0.9 0.00 0.00 0.00 41 1007.4
20260504021221 63 87 0.0 0.9 0.00 0.00 0.00 40 1007.6
20260504020717 63 120 1.7 1.7 0.00 0.00 0.00 39 1007.6
20260504020213 64 92 0.9 1.7 0.00 0.00 0.00 39 1007.6
20260504015705 64 82 1.7 2.6 0.00 0.00 0.00 38 1007.5
20260504015201 64 122 1.7 1.7 0.00 0.00 0.00 38 1007.6
20260504014656 65 69 3.5 4.3 0.00 0.00 0.00 37 1007.6
20260504014154 65 92 0.9 1.7 0.00 0.00 0.00 37 1007.7
20260504013652 66 92 2.6 2.6 0.00 0.00 0.00 37 1007.4
20260504013148 66 76 0.0 0.9 0.00 0.00 0.00 37 1007.5
20260504012645 67 97 0.9 0.9 0.00 0.00 0.00 36 1007.5
20260504012143 67 98 1.7 1.7 0.00 0.00 0.00 35 1007.4
20260504011640 68 135 0.9 1.7 0.00 0.00 0.00 35 1007.3
20260504011136 68 91 2.6 2.6 0.00 0.00 0.00 34 1007.3
20260504010632 68 94 0.9 0.9 0.00 0.00 0.00 35 1007.1
20260504010128 69 72 0.9 1.7 0.00 0.00 0.00 34 1007.3
20260504005625 69 105 0.9 1.7 0.00 0.00 0.00 33 1007.6
20260504005122 69 61 1.7 1.7 0.00 0.00 0.00 33 1007.5
20260504004620 70 38 2.6 2.6 0.00 0.00 0.00 32 1007.4
20260504004117 71 60 0.9 1.7 0.00 0.00 0.00 32 1007.7
20260504003613 71 51 3.5 5.2 0.00 0.00 0.00 31 1007.7
20260504003110 71 114 2.6 4.3 0.00 0.00 0.00 31 1008.0
20260504002607 71 91 2.6 2.6 0.00 0.00 0.00 31 1007.9
20260504002104 71 99 2.6 2.6 0.00 0.00 0.00 30 1007.9
20260504001602 71 70 1.7 1.7 0.00 0.00 0.00 31 1007.7
20260504001057 72 41 0.9 1.7 0.00 0.00 0.00 31 1008.1
20260504000555 72 46 2.6 2.6 0.00 0.00 0.00 30 1008.0
20260504000053 73 85 0.0 0.9 0.00 0.00 0.00 31 1007.9
20260503235551 72 121 0.0 0.0 0.00 0.00 0.00 31 1007.9
20260503235047 73 75 0.9 2.6 0.00 0.00 0.00 31 1008.3
20260503234545 73 76 2.6 2.6 0.00 0.00 0.00 28 1008.4
20260503234043 73 50 1.7 2.6 0.00 0.00 0.00 29 1008.3
20260503233539 74 46 1.7 1.7 0.00 0.00 0.00 29 1008.3
20260503233035 74 93 0.9 0.9 0.00 0.00 0.00 29 1008.2
20260503232532 74 133 2.6 2.6 0.00 0.00 0.00 28 1008.3
20260503232030 74 53 1.7 2.6 0.00 0.00 0.00 30 1008.6
20260503231528 74 61 2.6 2.6 0.00 0.00 0.00 28 1008.3
20260503231024 74 58 2.6 2.6 0.00 0.00 0.00 28 1008.6
20260503230521 74 77 0.9 0.9 0.00 0.00 0.00 28 1008.2
20260503230018 75 49 1.7 2.6 0.00 0.00 0.00 27 1008.5
20260503225514 75 125 4.3 6.1 0.00 0.00 0.00 27 1008.5
20260503225009 75 123 3.5 4.3 0.00 0.00 0.00 27 1008.5
20260503224507 75 21 3.5 4.3 0.00 0.00 0.00 26 1008.4
20260503224000 76 111 2.6 4.3 0.00 0.00 0.00 27 1008.4
20260503223457 76 183 0.0 0.9 0.00 0.00 0.00 26 1008.5
20260503222952 76 52 2.6 2.6 0.00 0.00 0.00 27 1008.6
20260503222451 76 152 0.0 0.0 0.00 0.00 0.00 29 1008.6
20260503221949 77 124 0.9 0.9 0.00 0.00 0.00 28 1008.6
20260503221447 78 125 2.6 2.6 0.00 0.00 0.00 25 1008.6